Location: Devore Heights
(34.2372°N, 117.4156°W)
Time: 09:53:45
(UTC+00:00)

Altair - Pass Details

Date: 17 September 2024
Orbit: 1501 x 1682 km, 47.2° (Epoch: 07 October)

Event Time Altitude Azimuth Distance (km) Brightness Sun altitude
Rises 16:59:06 0° 303° (WNW) 4,937 9.7 39.8°
Reaches altitude 10° 17:02:23 10° 299° (WNW) 3,941 9.3 40.4°
Maximum altitude 17:12:04 53° 226° (SW) 1,962 8.5 42.0°
Drops below altitude 10° 17:21:29 10° 153° (SSE) 3,828 10.5 43.6°
Sets 17:24:38 0° 149° (SSE) 4,787 10.8 44.2°
